Regional Weather Roundup
Issued by NWS Northern Indiana

Home | Current Version | Previous Version | Graphics & Text | Print | Product List | Glossary On
Versions: 1 2 3 4 5 6 7 8 9 10 11 12 13 14 15 16 17 18 19 20 21 22 23 24 25 26 27 28 29 30 31 32 33 34 35 36 37 38 39 40 41 42 43 44 45 46 47 48 49 50
000
ASUS43 KIWX 180810
RWRIWX

KIWX WEATHER ROUNDUP
NATIONAL WEATHER SERVICE NORTHERN INDIANA
300 AM EST MON DEC 18 2017

NOTE: "FAIR" INDICATES FEW OR NO CLOUDS BELOW 12,000 FEET WITH NO
SIGNIFICANT WEATHER AND/OR OBSTRUCTIONS TO VISIBILITY.

* THESE STATIONS ARE NOT UNDER NWS QUALITY CONTROL. THEY ALSO MAY NOT
  REPORT WEATHER SUCH AS PRECIPITATION OR FOG.

INZ001>027-180900-
NORTHERN INDIANA

CITY           SKY/WX    TMP DP  RH WIND       PRES   REMARKS
GARY*          CLOUDY    44  38  82 SW6       29.96F
VALPARAISO     CLOUDY    42  39  89 SW10      29.97F
MICHIGAN CITY* CLOUDY    39  37  93 S6        29.96F
LAPORTE*       CLOUDY    38  37  94 SW6       29.97F
KNOX*          CLOUDY    41  37  87 SW9       29.98F
SOUTH BEND     CLOUDY    37  37 100 S9        29.97F
GOSHEN         CLOUDY    39  36  89 S7        29.98F
MONTICELLO*    CLOUDY    41  38  92 SW9       30.00S
LOGANSPORT*    CLOUDY    39  36  87 SW10      30.02S
ROCHESTER*     CLOUDY    41  39  93 S6        30.01S
WARSAW*        CLOUDY    39  37  93 SW5       29.99F
AUBURN*        CLOUDY    39  36  87 SW6       30.01S
FORT WAYNE     CLOUDY    38  36  92 SW8       30.02S
HUNTINGTON*    CLOUDY    39  37  93 SW5       30.02S
PERU/GRISSOM   CLOUDY    40  40 100 SW12      30.01S
MARION*        CLOUDY    37  35  91 SW7       30.04R

$$
INZ028>050-180900-
CENTRAL INDIANA

CITY           SKY/WX    TMP DP  RH WIND       PRES   REMARKS
LAFAYETTE      CLOUDY    42  39  89 SW7       30.03R
KOKOMO*        CLOUDY    40  38  93 SW13      30.03S
MUNCIE*        CLOUDY    42  36  79 SW12      30.04R
INDIANAPOLIS   CLOUDY    41  39  93 SW8       30.06R FOG

$$
MIZ043>046-050>051-056>058-064>065-071>073-077>080-180900-
SOUTHWEST LOWER MICHIGAN

CITY           SKY/WX    TMP DP  RH WIND       PRES   REMARKS
BATTLE CREEK   CLOUDY    38  35  89 SW10      29.95F
BENTON HARBOR  CLOUDY    39  35  86 S7        29.95F
COLDWATER*     CLOUDY    38  37  96 SW8       29.97S
HILLSDALE*     CLOUDY    36  34  93 S6        29.96S FOG
HOLLAND        CLOUDY    37  35  92 S3        29.94F FOG
GRAND RAPIDS   CLOUDY    36  34  92 SW8       29.94F FOG
KALAMAZOO      CLOUDY    39  35  86 SW8       29.95F
STURGIS*       CLOUDY    38  37  95 SW8       29.97S
THREE RIVERS*  CLOUDY    38  36  91 S6        29.97F

$$
OHZ001>008-015>018-024>025-180900-
NORTHWEST OHIO

CITY           SKY/WX    TMP DP  RH WIND       PRES   REMARKS
WAUSEON*         N/A     37  37 100 SW7       30.00S
DEFIANCE       CLOUDY    38  33  82 SW8       30.02R
FINDLAY        CLOUDY    39  32  76 SW10      30.02S
TOLEDO EXPRESS CLOUDY    39  36  89 SW9       30.00F
TOLEDO METCALF CLOUDY    38  34  85 SW9       30.02S
LIMA           CLOUDY    38  35  89 S10       30.04R

$$
AND FOR LAKE MICHIGAN COASTAL AND OPEN LAKE BUOY OBSERVATIONS

STATION/POSITION TEMP    WIND        PRES    VSBY  WAVE
                 AIR SEA DIR/SP/G                  HT/PER
                 (F)     (DEG/KT/KT) (MB)    (MI)  (FT/S)
CALUMET HARBOR    42     190/ 10/ 13 1013.5F
MICHIGAN CITY     42     190/ 12/ 13   N/A
BURNS HARBOR      42     200/ 11/ 15 1014.9F
SAINT JOSEPH      40     160/  4/  9 1014.2

$$
&&



USA.gov is the U.S. government's official web portal to all federal, state and local government web resources and services.